Wetterdaten: Woche 17.12.12 - 23.12.12 (KW51)
Datum Zeit Temp. Innen Temp. Aussen Temp. 2 +5cm Bl.Temp 1 Feuchte Auss Feuchte 2 BlattFeu 1 Luftdruck Regen Sonnenschein T Regendauer ET UV Solar Windben Empfang
17.12.2012 00:00 12,8 C 6,3 C -22,7 C 2,8 C 0,0 C 95 % 0 % 0 lf 1003,1 hPa 0,0 l/m 0,00 h 0,00 h 0,000 mm 0,0 UV-I 0 W/m 4,6 km/h (1 Bft) 0,00 %
17.12.2012 01:00 12,8 C 5,9 C -22,7 C 3,0 C 0,0 C 96 % 0 % 0 lf 1002,8 hPa 0,0 l/m 0,00 h 0,00 h 0,000 mm 0,0 UV-I 0 W/m 5,1 km/h (1 Bft) 0,00 %
17.12.2012 02:00 12,8 C 5,8 C 3,0 C 3,1 C 0,0 C 96 % 0 % 0 lf 1002,6 hPa 0,9 l/m 0,00 h 0,00 h 0,000 mm 0,0 UV-I 0 W/m 1,8 km/h (1 Bft) 0,00 %
17.12.2012 03:00 12,8 C 6,0 C -14,1 C 3,2 C 0,0 C 96 % 0 % 0 lf 1002,7 hPa 0,0 l/m 0,00 h 0,00 h 0,000 mm 0,0 UV-I 0 W/m 1,1 km/h (1 Bft) 0,00 %
17.12.2012 04:00 12,8 C 6,1 C -22,7 C 3,1 C 0,0 C 96 % 0 % 0 lf 1002,7 hPa 0,1 l/m 0,00 h 0,00 h 0,000 mm 0,0 UV-I 0 W/m 3,5 km/h (1 Bft) 0,00 %
17.12.2012 05:00 12,8 C 6,0 C -21,0 C 2,9 C 0,0 C 96 % 0 % 0 lf 1002,4 hPa 0,0 l/m 0,00 h 0,00 h 0,000 mm 0,0 UV-I 0 W/m 3,2 km/h (1 Bft) 0,00 %
17.12.2012 06:00 12,8 C 5,9 C -17,6 C 3,1 C 0,0 C 97 % 0 % 0 lf 1002,2 hPa 0,0 l/m 0,00 h 0,00 h 0,000 mm 0,0 UV-I 0 W/m 5,0 km/h (1 Bft) 0,00 %
17.12.2012 07:00 12,8 C 6,1 C -22,7 C 3,4 C 0,0 C 97 % 0 % 0 lf 1002,3 hPa 0,0 l/m 0,00 h 0,00 h 0,000 mm 0,0 UV-I 0 W/m 0,2 km/h (0 Bft) 0,00 %
17.12.2012 08:00 12,8 C 6,4 C -22,7 C 3,5 C 0,0 C 97 % 0 % 0 lf 1002,3 hPa 0,0 l/m 0,00 h 0,00 h 0,000 mm 0,0 UV-I 0 W/m 0,7 km/h (0 Bft) 0,00 %
17.12.2012 09:00 12,8 C 6,8 C -22,7 C 4,0 C 0,0 C 97 % 0 % 0 lf 1002,6 hPa 0,0 l/m 0,00 h 0,00 h 0,000 mm 0,0 UV-I 0 W/m 1,0 km/h (0 Bft) 0,00 %
17.12.2012 10:00 12,8 C 7,3 C -22,5 C 5,1 C 0,0 C 97 % 0 % 0 lf 1003,2 hPa 0,0 l/m 0,00 h 0,00 h 0,000 mm 0,0 UV-I 0 W/m 4,8 km/h (1 Bft) 0,00 %
17.12.2012 11:00 12,9 C 8,2 C -22,5 C 6,0 C 0,0 C 97 % 0 % 0 lf 1003,0 hPa 0,0 l/m 0,00 h 0,00 h 0,000 mm 0,0 UV-I 0 W/m 5,3 km/h (1 Bft) 0,00 %
17.12.2012 12:00 13,1 C 8,8 C -22,5 C 6,4 C 0,0 C 95 % 0 % 0 lf 1002,8 hPa 0,0 l/m 0,00 h 0,00 h 0,000 mm 0,0 UV-I 0 W/m 6,2 km/h (2 Bft) 0,00 %
17.12.2012 13:00 13,2 C 8,8 C 11,2 C 6,3 C 0,0 C 93 % 0 % 0 lf 1002,4 hPa 0,2 l/m 0,00 h 0,00 h 0,000 mm 0,0 UV-I 0 W/m 6,8 km/h (2 Bft) 0,00 %
17.12.2012 14:00 13,1 C 8,8 C -22,5 C 6,3 C 0,0 C 92 % 0 % 0 lf 1002,0 hPa 0,0 l/m 0,00 h 0,00 h 0,000 mm 0,0 UV-I 0 W/m 5,9 km/h (2 Bft) 0,00 %
17.12.2012 15:00 13,1 C 8,8 C 7,6 C 5,8 C 0,0 C 91 % 0 % 0 lf 1002,2 hPa 0,0 l/m 0,00 h 0,00 h 0,000 mm 0,0 UV-I 0 W/m 11,7 km/h (2 Bft) 0,00 %
17.12.2012 16:00 13,2 C 8,2 C 11,1 C 5,2 C 0,0 C 92 % 0 % 0 lf 1002,6 hPa 0,2 l/m 0,00 h 0,00 h 0,000 mm 0,0 UV-I 0 W/m 8,2 km/h (2 Bft) 0,00 %
17.12.2012 17:00 13,2 C 7,7 C 0,5 C 4,8 C 0,0 C 94 % 0 % 0 lf 1003,1 hPa 0,2 l/m 0,00 h 0,00 h 0,000 mm 0,0 UV-I 0 W/m 3,4 km/h (1 Bft) 0,00 %
17.12.2012 18:00 13,2 C 7,6 C -20,8 C 4,5 C 0,0 C 95 % 0 % 0 lf 1003,7 hPa 0,0 l/m 0,00 h 0,00 h 0,000 mm 0,0 UV-I 0 W/m 1,9 km/h (1 Bft) 0,00 %
17.12.2012 19:00 13,2 C 7,4 C -20,9 C 3,9 C 0,0 C 95 % 0 % 0 lf 1003,8 hPa 0,0 l/m 0,00 h 0,00 h 0,000 mm 0,0 UV-I 0 W/m 5,9 km/h (2 Bft) 0,00 %
17.12.2012 20:00 13,1 C 7,3 C -15,5 C 3,7 C 0,0 C 95 % 0 % 0 lf 1004,2 hPa 0,0 l/m 0,00 h 0,00 h 0,000 mm 0,0 UV-I 0 W/m 6,8 km/h (2 Bft) 0,00 %
17.12.2012 21:00 13,1 C 7,2 C 0,5 C 3,9 C 0,0 C 95 % 0 % 0 lf 1005,0 hPa 0,1 l/m 0,00 h 0,00 h 0,000 mm 0,0 UV-I 0 W/m 3,6 km/h (1 Bft) 0,00 %
17.12.2012 22:00 13,1 C 6,8 C -12,5 C 3,5 C 0,0 C 96 % 0 % 0 lf 1005,5 hPa 0,0 l/m 0,00 h 0,00 h 0,000 mm 0,0 UV-I 0 W/m 3,9 km/h (1 Bft) 0,00 %
17.12.2012 23:00 13,0 C 6,8 C -19,1 C 3,4 C 0,0 C 96 % 0 % 0 lf 1005,7 hPa 0,0 l/m 0,00 h 0,00 h 0,000 mm 0,0 UV-I 0 W/m 8,3 km/h (2 Bft) 0,00 %
18.12.2012 00:00 13,0 C 6,8 C -20,3 C 3,7 C 0,0 C 96 % 0 % 0 lf 1006,3 hPa 0,0 l/m 0,00 h 0,00 h 0,000 mm 0,0 UV-I 0 W/m 11,3 km/h (2 Bft) 0,00 %
18.12.2012 01:00 13,0 C 6,6 C -19,3 C 3,4 C 0,0 C 95 % 0 % 0 lf 1006,8 hPa 0,0 l/m 0,00 h 0,00 h 0,000 mm 0,0 UV-I 0 W/m 14,2 km/h (3 Bft) 0,00 %
18.12.2012 02:00 12,8 C 6,1 C -19,3 C 2,6 C 0,0 C 95 % 0 % 0 lf 1007,1 hPa 0,0 l/m 0,00 h 0,00 h 0,000 mm 0,0 UV-I 0 W/m 5,4 km/h (1 Bft) 0,00 %
18.12.2012 03:00 12,8 C 5,7 C -22,7 C 1,9 C 0,0 C 95 % 0 % 0 lf 1007,4 hPa 0,0 l/m 0,00 h 0,00 h 0,000 mm 0,0 UV-I 0 W/m 2,5 km/h (1 Bft) 0,00 %
18.12.2012 04:00 12,8 C 5,1 C -17,0 C 1,0 C 0,0 C 95 % 0 % 0 lf 1007,8 hPa 0,0 l/m 0,00 h 0,00 h 0,000 mm 0,0 UV-I 0 W/m 4,3 km/h (1 Bft) 0,00 %
18.12.2012 05:00 12,8 C 5,1 C -19,4 C 1,6 C 0,0 C 96 % 0 % 0 lf 1008,1 hPa 0,0 l/m 0,00 h 0,00 h 0,000 mm 0,0 UV-I 0 W/m 2,3 km/h (1 Bft) 0,00 %
18.12.2012 06:00 12,9 C 5,3 C -18,7 C 1,8 C 0,0 C 96 % 0 % 0 lf 1008,4 hPa 0,0 l/m 0,00 h 0,00 h 0,000 mm 0,0 UV-I 0 W/m 1,4 km/h (1 Bft) 0,00 %
18.12.2012 07:00 12,9 C 5,5 C 4,0 C 2,8 C 0,0 C 96 % 0 % 0 lf 1009,1 hPa 0,2 l/m 0,00 h 0,00 h 0,000 mm 0,0 UV-I 0 W/m 0,2 km/h (0 Bft) 0,00 %
18.12.2012 08:00 13,0 C 5,5 C 13,3 C 3,0 C 0,0 C 96 % 0 % 0 lf 1009,8 hPa 0,1 l/m 0,00 h 0,00 h 0,000 mm 0,0 UV-I 0 W/m 0,2 km/h (0 Bft) 0,00 %
18.12.2012 09:00 13,0 C 5,6 C 12,3 C 3,5 C 0,0 C 96 % 0 % 0 lf 1010,4 hPa 0,2 l/m 0,00 h 0,00 h 0,000 mm 0,0 UV-I 0 W/m 0,0 km/h (0 Bft) 0,00 %
18.12.2012 10:00 13,1 C 6,0 C -20,8 C 4,4 C 0,0 C 97 % 0 % 0 lf 1011,0 hPa 0,0 l/m 0,00 h 0,00 h 0,000 mm 0,0 UV-I 0 W/m 0,8 km/h (0 Bft) 0,00 %
18.12.2012 11:00 13,1 C 6,5 C -20,9 C 5,3 C 0,0 C 96 % 0 % 0 lf 1011,6 hPa 0,0 l/m 0,00 h 0,00 h 0,000 mm 0,0 UV-I 0 W/m 4,2 km/h (1 Bft) 0,00 %
18.12.2012 12:00 13,0 C 6,8 C -21,1 C 5,5 C 0,0 C 95 % 0 % 0 lf 1011,8 hPa 0,0 l/m 0,00 h 0,00 h 0,000 mm 0,0 UV-I 0 W/m 7,2 km/h (2 Bft) 0,00 %
18.12.2012 13:00 12,7 C 6,8 C -15,5 C 5,3 C 0,0 C 94 % 0 % 0 lf 1012,2 hPa 0,0 l/m 0,00 h 0,00 h 0,000 mm 0,0 UV-I 0 W/m 6,7 km/h (2 Bft) 0,00 %
18.12.2012 14:00 12,5 C 6,7 C -3,1 C 5,2 C 0,0 C 95 % 0 % 0 lf 1012,7 hPa 0,1 l/m 0,00 h 0,00 h 0,000 mm 0,0 UV-I 0 W/m 4,6 km/h (1 Bft) 0,00 %
18.12.2012 15:00 12,4 C 6,6 C -19,1 C 4,9 C 0,0 C 95 % 0 % 0 lf 1013,2 hPa 0,0 l/m 0,00 h 0,00 h 0,000 mm 0,0 UV-I 0 W/m 1,6 km/h (1 Bft) 0,00 %
18.12.2012 16:00 12,4 C 6,6 C -14,1 C 4,7 C 0,0 C 96 % 0 % 0 lf 1013,9 hPa 0,0 l/m 0,00 h 0,00 h 0,000 mm 0,0 UV-I 0 W/m 0,6 km/h (0 Bft) 0,00 %
18.12.2012 17:00 12,5 C 6,4 C -12,0 C 4,4 C 0,0 C 96 % 0 % 0 lf 1014,9 hPa 0,0 l/m 0,00 h 0,00 h 0,000 mm 0,0 UV-I 0 W/m 1,1 km/h (1 Bft) 0,00 %
18.12.2012 18:00 12,5 C 6,3 C -13,8 C 4,2 C 0,0 C 96 % 0 % 0 lf 1015,7 hPa 0,1 l/m 0,00 h 0,00 h 0,000 mm 0,0 UV-I 0 W/m 2,0 km/h (1 Bft) 0,00 %
18.12.2012 19:00 12,4 C 6,1 C -14,5 C 3,9 C 0,0 C 96 % 0 % 0 lf 1016,1 hPa 0,0 l/m 0,00 h 0,00 h 0,000 mm 0,0 UV-I 0 W/m 0,5 km/h (0 Bft) 0,00 %
18.12.2012 20:00 12,4 C 6,1 C 11,6 C 3,9 C 0,0 C 97 % 0 % 0 lf 1016,6 hPa 0,4 l/m 0,00 h 0,00 h 0,000 mm 0,0 UV-I 0 W/m 0,0 km/h (0 Bft) 0,00 %
18.12.2012 21:00 12,6 C 5,9 C -22,7 C 3,7 C 0,0 C 97 % 0 % 0 lf 1017,2 hPa 0,0 l/m 0,00 h 0,00 h 0,000 mm 0,0 UV-I 0 W/m 0,4 km/h (0 Bft) 0,00 %
18.12.2012 22:00 12,8 C 5,7 C -22,7 C 3,3 C 0,0 C 97 % 0 % 0 lf 1017,8 hPa 0,0 l/m 0,00 h 0,00 h 0,000 mm 0,0 UV-I 0 W/m 0,0 km/h (0 Bft) 0,00 %
18.12.2012 23:00 12,9 C 5,5 C -22,7 C 3,3 C 0,0 C 97 % 0 % 0 lf 1018,4 hPa 0,0 l/m 0,00 h 0,00 h 0,000 mm 0,0 UV-I 0 W/m 0,0 km/h (0 Bft) 0,00 %
19.12.2012 00:00 12,8 C 5,3 C -17,5 C 2,4 C 0,0 C 97 % 0 % 0 lf 1018,8 hPa 0,0 l/m 0,00 h 0,00 h 0,000 mm 0,0 UV-I 0 W/m 0,0 km/h (0 Bft) 0,00 %
19.12.2012 01:00 12,8 C 5,2 C -22,8 C 2,5 C 0,0 C 97 % 0 % 0 lf 1019,0 hPa 0,1 l/m 0,00 h 0,00 h 0,000 mm 0,0 UV-I 0 W/m 0,0 km/h (0 Bft) 0,00 %
19.12.2012 02:00 13,0 C 5,1 C -21,0 C 2,6 C 0,0 C 97 % 0 % 0 lf 1019,5 hPa 0,0 l/m 0,00 h 0,00 h 0,000 mm 0,0 UV-I 0 W/m 0,0 km/h (0 Bft) 0,00 %
19.12.2012 03:00 13,0 C 5,0 C -22,8 C 2,7 C 0,0 C 97 % 0 % 0 lf 1019,9 hPa 0,0 l/m 0,00 h 0,00 h 0,000 mm 0,0 UV-I 0 W/m 0,0 km/h (0 Bft) 0,00 %
19.12.2012 04:00 13,0 C 5,2 C -19,2 C 3,3 C 0,0 C 97 % 0 % 0 lf 1020,0 hPa 0,0 l/m 0,00 h 0,00 h 0,000 mm 0,0 UV-I 0 W/m 0,0 km/h (0 Bft) 0,00 %
19.12.2012 05:00 13,0 C 5,4 C 11,0 C 3,3 C 0,0 C 97 % 0 % 0 lf 1020,1 hPa 0,1 l/m 0,00 h 0,00 h 0,000 mm 0,0 UV-I 0 W/m 0,0 km/h (0 Bft) 0,00 %
19.12.2012 06:00 13,1 C 5,3 C -13,8 C 3,2 C 0,0 C 98 % 0 % 0 lf 1020,3 hPa 0,1 l/m 0,00 h 0,00 h 0,000 mm 0,0 UV-I 0 W/m 0,6 km/h (0 Bft) 0,00 %
19.12.2012 07:00 13,1 C 5,3 C -22,7 C 3,2 C 0,0 C 98 % 0 % 0 lf 1020,8 hPa 0,0 l/m 0,00 h 0,00 h 0,000 mm 0,0 UV-I 0 W/m 0,0 km/h (0 Bft) 0,00 %
19.12.2012 08:00 13,1 C 5,5 C -19,2 C 3,3 C 0,0 C 98 % 0 % 0 lf 1021,1 hPa 0,0 l/m 0,00 h 0,00 h 0,000 mm 0,0 UV-I 0 W/m 0,0 km/h (0 Bft) 0,00 %
19.12.2012 09:00 13,1 C 5,5 C -22,7 C 3,5 C 0,0 C 98 % 0 % 0 lf 1021,6 hPa 0,0 l/m 0,00 h 0,00 h 0,000 mm 0,0 UV-I 0 W/m 0,6 km/h (0 Bft) 0,00 %
19.12.2012 10:00 13,2 C 5,8 C -22,7 C 4,2 C 0,0 C 98 % 0 % 0 lf 1021,9 hPa 0,0 l/m 0,00 h 0,00 h 0,000 mm 0,0 UV-I 0 W/m 0,2 km/h (0 Bft) 0,00 %
19.12.2012 11:00 13,2 C 6,2 C -22,7 C 5,0 C 0,0 C 98 % 0 % 0 lf 1022,2 hPa 0,0 l/m 0,00 h 0,00 h 0,000 mm 0,0 UV-I 0 W/m 0,3 km/h (0 Bft) 0,00 %
19.12.2012 12:00 13,4 C 6,5 C -22,6 C 5,6 C 0,0 C 98 % 0 % 0 lf 1022,2 hPa 0,0 l/m 0,00 h 0,00 h 0,000 mm 0,0 UV-I 0 W/m 2,6 km/h (1 Bft) 0,00 %
19.12.2012 13:00 13,6 C 6,8 C -22,5 C 6,1 C 0,0 C 98 % 0 % 0 lf 1021,7 hPa 0,0 l/m 0,00 h 0,00 h 0,000 mm 0,0 UV-I 0 W/m 3,7 km/h (1 Bft) 0,00 %
19.12.2012 14:00 13,8 C 7,1 C -22,6 C 5,7 C 0,0 C 98 % 0 % 0 lf 1021,6 hPa 0,0 l/m 0,00 h 0,00 h 0,000 mm 0,0 UV-I 0 W/m 3,7 km/h (1 Bft) 0,00 %
19.12.2012 15:00 13,9 C 6,6 C -22,7 C 4,3 C 0,0 C 96 % 0 % 0 lf 1021,8 hPa 0,0 l/m 0,00 h 0,00 h 0,000 mm 0,0 UV-I 0 W/m 3,7 km/h (1 Bft) 0,00 %
19.12.2012 16:00 13,7 C 5,9 C -22,8 C 2,7 C 0,0 C 96 % 0 % 0 lf 1022,1 hPa 0,0 l/m 0,00 h 0,00 h 0,000 mm 0,0 UV-I 0 W/m 3,2 km/h (1 Bft) 0,00 %
19.12.2012 17:00 13,4 C 4,9 C -21,1 C 0,7 C 0,0 C 96 % 0 % 0 lf 1022,0 hPa 0,0 l/m 0,00 h 0,00 h 0,000 mm 0,0 UV-I 0 W/m 1,7 km/h (1 Bft) 0,00 %
19.12.2012 18:00 13,2 C 4,3 C -21,1 C 0,3 C 0,0 C 96 % 0 % 0 lf 1021,9 hPa 0,0 l/m 0,00 h 0,00 h 0,000 mm 0,0 UV-I 0 W/m 2,3 km/h (1 Bft) 0,00 %
19.12.2012 19:00 13,1 C 4,1 C -19,3 C 0,4 C 0,0 C 97 % 0 % 0 lf 1021,7 hPa 0,0 l/m 0,00 h 0,00 h 0,000 mm 0,0 UV-I 0 W/m 5,1 km/h (1 Bft) 0,00 %
19.12.2012 20:00 13,0 C 3,8 C -23,0 C -0,3 C 0,0 C 97 % 0 % 0 lf 1021,7 hPa 0,0 l/m 0,00 h 0,00 h 0,000 mm 0,0 UV-I 0 W/m 5,8 km/h (2 Bft) 0,00 %
19.12.2012 21:00 12,9 C 3,5 C -23,0 C -0,3 C 0,0 C 97 % 0 % 0 lf 1021,3 hPa 0,0 l/m 0,00 h 0,00 h 0,000 mm 0,0 UV-I 0 W/m 12,3 km/h (3 Bft) 0,00 %
19.12.2012 22:00 12,8 C 3,5 C -23,0 C 0,1 C 0,0 C 97 % 0 % 0 lf 1021,1 hPa 0,0 l/m 0,00 h 0,00 h 0,000 mm 0,0 UV-I 0 W/m 8,9 km/h (2 Bft) 0,00 %
19.12.2012 23:00 12,8 C 3,5 C -21,2 C -0,1 C 0,0 C 98 % 0 % 0 lf 1020,9 hPa 0,0 l/m 0,00 h 0,00 h 0,000 mm 0,0 UV-I 0 W/m 8,3 km/h (2 Bft) 0,00 %
20.12.2012 00:00 12,8 C 3,6 C -22,9 C 0,1 C 0,0 C 97 % 0 % 0 lf 1020,4 hPa 0,0 l/m 0,00 h 0,00 h 0,000 mm 0,0 UV-I 0 W/m 8,5 km/h (2 Bft) 0,00 %
20.12.2012 01:00 12,8 C 3,2 C -21,3 C -0,8 C 0,0 C 96 % 0 % 0 lf 1019,6 hPa 0,0 l/m 0,00 h 0,00 h 0,000 mm 0,0 UV-I 0 W/m 3,5 km/h (1 Bft) 0,00 %
20.12.2012 02:00 12,8 C 2,9 C -23,1 C -1,3 C 0,0 C 96 % 0 % 0 lf 1018,8 hPa 0,0 l/m 0,00 h 0,00 h 0,000 mm 0,0 UV-I 0 W/m 1,6 km/h (1 Bft) 0,00 %
20.12.2012 03:00 12,7 C 2,7 C -23,1 C -1,5 C 0,0 C 96 % 0 % 0 lf 1018,2 hPa 0,0 l/m 0,00 h 0,00 h 0,000 mm 0,0 UV-I 0 W/m 8,0 km/h (2 Bft) 0,00 %
20.12.2012 04:00 12,8 C 3,2 C -21,3 C -0,9 C 0,0 C 95 % 0 % 0 lf 1017,2 hPa 0,0 l/m 0,00 h 0,00 h 0,000 mm 0,0 UV-I 0 W/m 13,1 km/h (3 Bft) 0,00 %
20.12.2012 05:00 12,8 C 3,2 C -23,0 C -0,8 C 0,0 C 94 % 0 % 0 lf 1016,3 hPa 0,0 l/m 0,00 h 0,00 h 0,000 mm 0,0 UV-I 0 W/m 15,8 km/h (3 Bft) 0,00 %
20.12.2012 06:00 12,7 C 2,9 C -23,0 C -0,8 C 0,0 C 94 % 0 % 0 lf 1016,0 hPa 0,0 l/m 0,00 h 0,00 h 0,000 mm 0,0 UV-I 0 W/m 11,0 km/h (2 Bft) 0,00 %
20.12.2012 07:00 12,7 C 2,6 C -23,1 C -1,1 C 0,0 C 94 % 0 % 0 lf 1015,6 hPa 0,0 l/m 0,00 h 0,00 h 0,000 mm 0,0 UV-I 0 W/m 10,0 km/h (2 Bft) 0,00 %
20.12.2012 08:00 12,6 C 2,5 C -23,1 C -1,1 C 0,0 C 93 % 0 % 0 lf 1014,9 hPa 0,0 l/m 0,00 h 0,00 h 0,000 mm 0,0 UV-I 0 W/m 13,2 km/h (3 Bft) 0,00 %
20.12.2012 09:00 12,6 C 2,7 C -23,0 C -0,8 C 0,0 C 92 % 0 % 0 lf 1014,0 hPa 0,0 l/m 0,00 h 0,00 h 0,000 mm 0,0 UV-I 0 W/m 16,3 km/h (3 Bft) 0,00 %
20.12.2012 10:00 12,4 C 3,1 C -22,9 C -0,2 C 0,0 C 90 % 0 % 0 lf 1013,3 hPa 0,0 l/m 0,00 h 0,00 h 0,000 mm 0,0 UV-I 0 W/m 24,4 km/h (4 Bft) 0,00 %
20.12.2012 11:00 12,6 C 3,6 C -22,9 C 0,6 C 0,0 C 87 % 0 % 0 lf 1012,9 hPa 0,0 l/m 0,00 h 0,00 h 0,000 mm 0,1 UV-I 0 W/m 22,2 km/h (4 Bft) 0,00 %
20.12.2012 12:00 12,8 C 4,0 C -22,9 C 1,6 C 0,0 C 85 % 0 % 0 lf 1012,1 hPa 0,0 l/m 0,00 h 0,00 h 0,000 mm 0,1 UV-I 0 W/m 25,0 km/h (4 Bft) 0,00 %
20.12.2012 13:00 12,7 C 4,0 C -6,9 C 1,8 C 0,0 C 84 % 0 % 0 lf 1011,3 hPa 0,0 l/m 0,00 h 0,00 h 0,000 mm 0,0 UV-I 0 W/m 20,3 km/h (4 Bft) 0,00 %
20.12.2012 14:00 12,7 C 3,5 C 28,6 C 1,7 C 0,0 C 88 % 0 % 0 lf 1010,3 hPa 0,5 l/m 0,00 h 0,00 h 0,000 mm 0,0 UV-I 0 W/m 15,1 km/h (3 Bft) 0,00 %
20.12.2012 15:00 12,7 C 3,1 C 26,8 C 1,3 C 0,0 C 91 % 0 % 0 lf 1009,5 hPa 0,5 l/m 0,00 h 0,00 h 0,000 mm 0,0 UV-I 0 W/m 15,7 km/h (3 Bft) 0,00 %
20.12.2012 16:00 12,6 C 2,7 C 26,8 C 0,8 C 0,0 C 92 % 0 % 0 lf 1009,2 hPa 0,6 l/m 0,00 h 0,00 h 0,000 mm 0,0 UV-I 0 W/m 21,3 km/h (4 Bft) 0,00 %
20.12.2012 17:00 12,4 C 2,4 C 28,6 C 0,4 C 0,0 C 93 % 0 % 0 lf 1008,6 hPa 0,6 l/m 0,00 h 0,00 h 0,000 mm 0,0 UV-I 0 W/m 22,3 km/h (4 Bft) 0,00 %
20.12.2012 18:00 12,3 C 2,2 C 25,2 C 0,4 C 0,0 C 95 % 0 % 0 lf 1008,4 hPa 1,1 l/m 0,00 h 0,00 h 0,000 mm 0,0 UV-I 0 W/m 22,0 km/h (4 Bft) 0,00 %
20.12.2012 19:00 12,3 C 2,1 C 4,5 C 0,3 C 0,0 C 95 % 0 % 0 lf 1008,2 hPa 1,2 l/m 0,00 h 0,00 h 0,000 mm 0,0 UV-I 0 W/m 19,8 km/h (3 Bft) 0,00 %
20.12.2012 20:00 12,4 C 2,1 C -23,1 C 0,3 C 0,0 C 96 % 0 % 0 lf 1008,1 hPa 1,1 l/m 0,00 h 0,00 h 0,000 mm 0,0 UV-I 0 W/m 18,3 km/h (3 Bft) 0,00 %
20.12.2012 21:00 12,3 C 2,1 C -23,1 C 0,3 C 0,0 C 96 % 0 % 0 lf 1007,8 hPa 1,1 l/m 0,00 h 0,00 h 0,000 mm 0,0 UV-I 0 W/m 20,8 km/h (4 Bft) 0,00 %
20.12.2012 22:00 12,3 C 2,1 C -23,1 C 0,4 C 0,0 C 96 % 0 % 0 lf 1007,4 hPa 1,1 l/m 0,00 h 0,00 h 0,000 mm 0,0 UV-I 0 W/m 18,8 km/h (3 Bft) 0,00 %
20.12.2012 23:00 12,3 C 2,3 C -23,1 C 0,5 C 0,0 C 97 % 0 % 0 lf 1007,2 hPa 1,4 l/m 0,00 h 0,00 h 0,000 mm 0,0 UV-I 0 W/m 15,0 km/h (3 Bft) 0,00 %
21.12.2012 00:00 12,4 C 2,3 C -23,1 C 0,6 C 0,0 C 97 % 0 % 0 lf 1007,0 hPa 1,1 l/m 0,00 h 0,00 h 0,000 mm 0,0 UV-I 0 W/m 12,3 km/h (3 Bft) 0,00 %
21.12.2012 01:00 12,4 C 2,4 C -23,1 C 0,7 C 0,0 C 97 % 0 % 0 lf 1006,7 hPa 0,9 l/m 0,00 h 0,00 h 0,000 mm 0,0 UV-I 0 W/m 14,3 km/h (3 Bft) 0,00 %
21.12.2012 02:00 12,4 C 2,4 C -23,1 C 0,8 C 0,0 C 97 % 0 % 0 lf 1006,7 hPa 0,7 l/m 0,00 h 0,00 h 0,000 mm 0,0 UV-I 0 W/m 13,2 km/h (3 Bft) 0,00 %
21.12.2012 03:00 12,4 C 2,7 C -23,0 C 1,1 C 0,0 C 97 % 0 % 0 lf 1006,8 hPa 0,1 l/m 0,00 h 0,00 h 0,000 mm 0,0 UV-I 0 W/m 12,6 km/h (3 Bft) 0,00 %
21.12.2012 04:00 12,4 C 2,8 C -4,1 C 1,3 C 0,0 C 98 % 0 % 0 lf 1006,5 hPa 0,1 l/m 0,00 h 0,00 h 0,000 mm 0,0 UV-I 0 W/m 11,4 km/h (2 Bft) 0,00 %
21.12.2012 05:00 12,3 C 3,0 C -17,8 C 1,5 C 0,0 C 98 % 0 % 0 lf 1006,3 hPa 0,0 l/m 0,00 h 0,00 h 0,000 mm 0,0 UV-I 0 W/m 10,4 km/h (2 Bft) 0,00 %
21.12.2012 06:00 12,3 C 3,1 C 28,6 C 1,6 C 0,0 C 98 % 0 % 0 lf 1006,3 hPa 1,0 l/m 0,00 h 0,00 h 0,000 mm 0,0 UV-I 0 W/m 6,1 km/h (2 Bft) 0,00 %
21.12.2012 07:00 12,3 C 3,3 C -17,7 C 1,8 C 0,0 C 98 % 0 % 0 lf 1006,7 hPa 0,1 l/m 0,00 h 0,00 h 0,000 mm 0,0 UV-I 0 W/m 9,4 km/h (2 Bft) 0,00 %
21.12.2012 08:00 12,3 C 3,6 C -22,9 C 2,1 C 0,0 C 98 % 0 % 0 lf 1006,8 hPa 0,0 l/m 0,00 h 0,00 h 0,000 mm 0,0 UV-I 0 W/m 8,5 km/h (2 Bft) 0,00 %
21.12.2012 09:00 12,5 C 4,1 C -21,1 C 2,7 C 0,0 C 98 % 0 % 0 lf 1007,4 hPa 0,0 l/m 0,00 h 0,00 h 0,000 mm 0,0 UV-I 0 W/m 5,1 km/h (1 Bft) 0,00 %
21.12.2012 10:00 12,6 C 4,6 C -10,8 C 3,4 C 0,0 C 98 % 0 % 0 lf 1008,3 hPa 0,0 l/m 0,00 h 0,00 h 0,000 mm 0,0 UV-I 0 W/m 4,3 km/h (1 Bft) 0,00 %
21.12.2012 11:00 12,7 C 5,5 C -21,0 C 4,7 C 0,0 C 99 % 0 % 0 lf 1008,7 hPa 0,1 l/m 0,00 h 0,00 h 0,000 mm 0,0 UV-I 0 W/m 1,2 km/h (1 Bft) 0,00 %
21.12.2012 12:00 12,8 C 6,4 C -20,9 C 5,6 C 0,0 C 99 % 0 % 0 lf 1009,3 hPa 0,0 l/m 0,00 h 0,00 h 0,000 mm 0,0 UV-I 0 W/m 0,7 km/h (0 Bft) 0,00 %
21.12.2012 13:00 13,0 C 7,3 C -22,6 C 6,4 C 0,0 C 99 % 0 % 0 lf 1009,4 hPa 0,0 l/m 0,00 h 0,00 h 0,000 mm 0,0 UV-I 0 W/m 0,4 km/h (0 Bft) 0,00 %
21.12.2012 14:00 13,1 C 7,4 C -22,6 C 5,9 C 0,0 C 99 % 0 % 0 lf 1010,0 hPa 0,0 l/m 0,00 h 0,00 h 0,000 mm 0,0 UV-I 0 W/m 0,0 km/h (0 Bft) 0,00 %
21.12.2012 15:00 13,1 C 7,6 C -20,9 C 5,6 C 0,0 C 99 % 0 % 0 lf 1010,6 hPa 0,0 l/m 0,00 h 0,00 h 0,000 mm 0,0 UV-I 0 W/m 0,0 km/h (0 Bft) 0,00 %
21.12.2012 16:00 13,2 C 7,8 C -22,6 C 5,2 C 0,0 C 99 % 0 % 0 lf 1010,9 hPa 0,0 l/m 0,00 h 0,00 h 0,000 mm 0,0 UV-I 0 W/m 0,0 km/h (0 Bft) 0,00 %
21.12.2012 17:00 13,2 C 7,2 C -19,0 C 3,1 C 0,0 C 98 % 0 % 0 lf 1011,7 hPa 0,0 l/m 0,00 h 0,00 h 0,000 mm 0,0 UV-I 0 W/m 0,0 km/h (0 Bft) 0,00 %
21.12.2012 18:00 13,1 C 6,4 C -19,3 C 3,1 C 0,0 C 98 % 0 % 0 lf 1012,1 hPa 0,0 l/m 0,00 h 0,00 h 0,000 mm 0,0 UV-I 0 W/m 0,9 km/h (0 Bft) 0,00 %
21.12.2012 19:00 13,1 C 6,5 C -21,0 C 3,9 C 0,0 C 98 % 0 % 0 lf 1012,7 hPa 0,0 l/m 0,00 h 0,00 h 0,000 mm 0,0 UV-I 0 W/m 0,0 km/h (0 Bft) 0,00 %
21.12.2012 20:00 13,1 C 7,5 C -8,9 C 4,8 C 0,0 C 99 % 0 % 0 lf 1013,3 hPa 0,1 l/m 0,00 h 0,00 h 0,000 mm 0,0 UV-I 0 W/m 3,1 km/h (1 Bft) 0,00 %
21.12.2012 21:00 13,1 C 7,9 C -22,6 C 5,0 C 0,0 C 99 % 0 % 0 lf 1013,7 hPa 0,0 l/m 0,00 h 0,00 h 0,000 mm 0,0 UV-I 0 W/m 3,3 km/h (1 Bft) 0,00 %
21.12.2012 22:00 13,2 C 7,8 C -20,9 C 5,0 C 0,0 C 99 % 0 % 0 lf 1013,8 hPa 0,0 l/m 0,00 h 0,00 h 0,000 mm 0,0 UV-I 0 W/m 4,7 km/h (1 Bft) 0,00 %
21.12.2012 23:00 13,2 C 7,9 C -20,9 C 5,2 C 0,0 C 99 % 0 % 0 lf 1014,4 hPa 0,0 l/m 0,00 h 0,00 h 0,000 mm 0,0 UV-I 0 W/m 4,4 km/h (1 Bft) 0,00 %
22.12.2012 00:00 13,2 C 7,9 C -20,8 C 5,2 C 0,0 C 99 % 0 % 0 lf 1015,0 hPa 0,0 l/m 0,00 h 0,00 h 0,000 mm 0,0 UV-I 0 W/m 6,3 km/h (2 Bft) 0,00 %
22.12.2012 01:00 13,1 C 8,0 C -20,9 C 5,3 C 0,0 C 98 % 0 % 0 lf 1015,0 hPa 0,1 l/m 0,00 h 0,00 h 0,000 mm 0,0 UV-I 0 W/m 5,5 km/h (1 Bft) 0,00 %
22.12.2012 02:00 13,1 C 7,9 C -22,6 C 5,1 C 0,0 C 98 % 0 % 0 lf 1015,0 hPa 0,0 l/m 0,00 h 0,00 h 0,000 mm 0,0 UV-I 0 W/m 2,1 km/h (1 Bft) 0,00 %
22.12.2012 03:00 13,2 C 7,8 C -22,6 C 5,0 C 0,0 C 98 % 0 % 0 lf 1015,8 hPa 0,0 l/m 0,00 h 0,00 h 0,000 mm 0,0 UV-I 0 W/m 5,3 km/h (1 Bft) 0,00 %
22.12.2012 04:00 13,2 C 7,7 C -21,0 C 4,8 C 0,0 C 98 % 0 % 0 lf 1015,5 hPa 0,0 l/m 0,00 h 0,00 h 0,000 mm 0,0 UV-I 0 W/m 4,7 km/h (1 Bft) 0,00 %
22.12.2012 05:00 13,2 C 7,5 C -22,7 C 4,4 C 0,0 C 98 % 0 % 0 lf 1015,2 hPa 0,0 l/m 0,00 h 0,00 h 0,000 mm 0,0 UV-I 0 W/m 3,6 km/h (1 Bft) 0,00 %
22.12.2012 06:00 13,2 C 7,4 C -22,7 C 4,3 C 0,0 C 97 % 0 % 0 lf 1015,2 hPa 0,0 l/m 0,00 h 0,00 h 0,000 mm 0,0 UV-I 0 W/m 0,6 km/h (0 Bft) 0,00 %
22.12.2012 07:00 13,2 C 7,3 C -22,7 C 4,5 C 0,0 C 97 % 0 % 0 lf 1015,2 hPa 0,0 l/m 0,00 h 0,00 h 0,000 mm 0,0 UV-I 0 W/m 1,8 km/h (1 Bft) 0,00 %
22.12.2012 08:00 13,3 C 7,2 C -22,7 C 4,6 C 0,0 C 97 % 0 % 0 lf 1015,1 hPa 0,0 l/m 0,00 h 0,00 h 0,000 mm 0,0 UV-I 0 W/m 0,2 km/h (0 Bft) 0,00 %
22.12.2012 09:00 13,4 C 7,1 C -22,7 C 4,7 C 0,0 C 97 % 0 % 0 lf 1015,1 hPa 0,0 l/m 0,00 h 0,00 h 0,000 mm 0,0 UV-I 0 W/m 0,9 km/h (0 Bft) 0,00 %
22.12.2012 10:00 13,5 C 7,4 C -22,6 C 5,3 C 0,0 C 97 % 0 % 0 lf 1014,8 hPa 0,0 l/m 0,00 h 0,00 h 0,000 mm 0,0 UV-I 0 W/m 2,1 km/h (1 Bft) 0,00 %
22.12.2012 11:00 13,6 C 8,1 C -22,5 C 6,0 C 0,0 C 95 % 0 % 0 lf 1014,6 hPa 0,0 l/m 0,00 h 0,00 h 0,000 mm 0,0 UV-I 0 W/m 5,4 km/h (1 Bft) 0,00 %
22.12.2012 12:00 13,6 C 8,4 C -22,5 C 6,3 C 0,0 C 93 % 0 % 0 lf 1013,2 hPa 0,0 l/m 0,00 h 0,00 h 0,000 mm 0,0 UV-I 0 W/m 8,5 km/h (2 Bft) 0,00 %
22.12.2012 13:00 13,7 C 8,3 C -22,5 C 6,0 C 0,0 C 92 % 0 % 0 lf 1012,6 hPa 0,0 l/m 0,00 h 0,00 h 0,000 mm 0,0 UV-I 0 W/m 4,3 km/h (1 Bft) 0,00 %
22.12.2012 14:00 13,7 C 8,1 C 23,7 C 5,8 C 0,0 C 92 % 0 % 0 lf 1011,6 hPa 0,5 l/m 0,00 h 0,00 h 0,000 mm 0,0 UV-I 0 W/m 4,1 km/h (1 Bft) 0,00 %
22.12.2012 15:00 13,7 C 7,5 C 25,4 C 5,3 C 0,0 C 94 % 0 % 0 lf 1010,6 hPa 1,7 l/m 0,00 h 0,00 h 0,000 mm 0,0 UV-I 0 W/m 8,0 km/h (2 Bft) 0,00 %
22.12.2012 16:00 13,6 C 7,2 C -22,6 C 5,0 C 0,0 C 96 % 0 % 0 lf 1009,4 hPa 2,2 l/m 0,00 h 0,00 h 0,000 mm 0,0 UV-I 0 W/m 12,3 km/h (3 Bft) 0,00 %
22.12.2012 17:00 13,6 C 6,9 C -22,8 C 4,8 C 0,0 C 96 % 0 % 0 lf 1007,9 hPa 1,6 l/m 0,00 h 0,00 h 0,000 mm 0,0 UV-I 0 W/m 20,1 km/h (4 Bft) 0,00 %
22.12.2012 18:00 13,5 C 6,7 C -22,8 C 4,7 C 0,0 C 97 % 0 % 0 lf 1006,9 hPa 2,7 l/m 0,00 h 0,00 h 0,000 mm 0,0 UV-I 0 W/m 24,9 km/h (4 Bft) 0,00 %
22.12.2012 19:00 13,4 C 6,4 C -22,8 C 4,4 C 0,0 C 97 % 0 % 0 lf 1005,7 hPa 0,4 l/m 0,00 h 0,00 h 0,000 mm 0,0 UV-I 0 W/m 24,1 km/h (4 Bft) 0,00 %
22.12.2012 20:00 13,4 C 6,1 C -22,7 C 4,3 C 0,0 C 98 % 0 % 0 lf 1004,8 hPa 0,7 l/m 0,00 h 0,00 h 0,000 mm 0,0 UV-I 0 W/m 17,8 km/h (3 Bft) 0,00 %
22.12.2012 21:00 13,4 C 6,2 C -22,8 C 4,4 C 0,0 C 98 % 0 % 0 lf 1004,1 hPa 3,1 l/m 0,00 h 0,00 h 0,000 mm 0,0 UV-I 0 W/m 16,1 km/h (3 Bft) 0,00 %
22.12.2012 22:00 13,4 C 6,3 C -22,8 C 4,5 C 0,0 C 98 % 0 % 0 lf 1003,5 hPa 2,2 l/m 0,00 h 0,00 h 0,000 mm 0,0 UV-I 0 W/m 16,3 km/h (3 Bft) 0,00 %
22.12.2012 23:00 13,4 C 6,6 C -22,8 C 4,8 C 0,0 C 98 % 0 % 0 lf 1003,0 hPa 2,4 l/m 0,00 h 0,00 h 0,000 mm 0,0 UV-I 0 W/m 10,0 km/h (2 Bft) 0,00 %
23.12.2012 00:00 13,5 C 7,3 C -22,7 C 5,4 C 0,0 C 99 % 0 % 0 lf 1002,4 hPa 3,3 l/m 0,00 h 0,00 h 0,000 mm 0,0 UV-I 0 W/m 7,2 km/h (2 Bft) 0,00 %
23.12.2012 01:00 13,6 C 9,3 C -22,5 C 6,7 C 0,0 C 99 % 0 % 0 lf 1001,8 hPa 0,6 l/m 0,00 h 0,00 h 0,000 mm 0,0 UV-I 0 W/m 7,5 km/h (2 Bft) 0,00 %
23.12.2012 02:00 13,9 C 11,9 C -22,3 C 8,8 C 0,0 C 99 % 0 % 0 lf 1002,0 hPa 0,7 l/m 0,00 h 0,00 h 0,000 mm 0,0 UV-I 0 W/m 15,9 km/h (3 Bft) 0,00 %
23.12.2012 03:00 14,2 C 12,3 C -22,4 C 9,3 C 0,0 C 99 % 0 % 0 lf 1002,1 hPa 0,6 l/m 0,00 h 0,00 h 0,000 mm 0,0 UV-I 0 W/m 16,4 km/h (3 Bft) 0,00 %
23.12.2012 04:00 14,3 C 12,4 C -22,4 C 9,5 C 0,0 C 99 % 0 % 0 lf 1002,4 hPa 1,1 l/m 0,00 h 0,00 h 0,000 mm 0,0 UV-I 0 W/m 15,9 km/h (3 Bft) 0,00 %
23.12.2012 05:00 14,4 C 12,4 C -22,4 C 9,1 C 0,0 C 98 % 0 % 0 lf 1002,2 hPa 0,7 l/m 0,00 h 0,00 h 0,000 mm 0,0 UV-I 0 W/m 18,9 km/h (3 Bft) 0,00 %
23.12.2012 06:00 14,6 C 12,4 C -22,4 C 8,9 C 0,0 C 98 % 0 % 0 lf 1002,4 hPa 1,4 l/m 0,00 h 0,00 h 0,000 mm 0,0 UV-I 0 W/m 22,5 km/h (4 Bft) 0,00 %
23.12.2012 07:00 14,7 C 12,5 C -22,4 C 8,8 C 0,0 C 98 % 0 % 0 lf 1002,6 hPa 0,2 l/m 0,00 h 0,00 h 0,000 mm 0,0 UV-I 0 W/m 23,2 km/h (4 Bft) 0,00 %
23.12.2012 08:00 14,8 C 12,7 C -22,4 C 8,7 C 0,0 C 97 % 0 % 0 lf 1003,1 hPa 0,5 l/m 0,00 h 0,00 h 0,000 mm 0,0 UV-I 0 W/m 21,2 km/h (4 Bft) 0,00 %
23.12.2012 09:00 14,8 C 12,8 C -22,4 C 9,1 C 0,0 C 97 % 0 % 0 lf 1003,6 hPa 0,2 l/m 0,00 h 0,00 h 0,000 mm 0,0 UV-I 0 W/m 28,3 km/h (4 Bft) 0,00 %
23.12.2012 10:00 14,8 C 13,0 C -18,8 C 9,2 C 0,0 C 96 % 0 % 0 lf 1003,7 hPa 0,4 l/m 0,00 h 0,00 h 0,000 mm 0,0 UV-I 0 W/m 24,4 km/h (4 Bft) 0,00 %
23.12.2012 11:00 15,0 C 13,1 C -22,3 C 8,7 C 0,0 C 95 % 0 % 0 lf 1004,2 hPa 0,0 l/m 0,00 h 0,00 h 0,000 mm 0,0 UV-I 0 W/m 22,9 km/h (4 Bft) 0,00 %
23.12.2012 12:00 15,1 C 13,5 C -22,2 C 9,1 C 0,0 C 92 % 0 % 0 lf 1004,3 hPa 0,0 l/m 0,00 h 0,00 h 0,000 mm 0,0 UV-I 0 W/m 26,2 km/h (4 Bft) 0,00 %
23.12.2012 13:00 15,1 C 13,4 C -20,4 C 9,4 C 0,0 C 92 % 0 % 0 lf 1004,9 hPa 0,0 l/m 0,00 h 0,00 h 0,000 mm 0,0 UV-I 0 W/m 19,4 km/h (3 Bft) 0,00 %
23.12.2012 14:00 15,2 C 13,2 C -22,2 C 9,4 C 0,0 C 93 % 0 % 0 lf 1004,6 hPa 0,0 l/m 0,00 h 0,00 h 0,000 mm 0,0 UV-I 0 W/m 16,7 km/h (3 Bft) 0,00 %
23.12.2012 15:00 15,2 C 13,0 C -1,0 C 9,4 C 0,0 C 94 % 0 % 0 lf 1004,6 hPa 0,1 l/m 0,00 h 0,00 h 0,000 mm 0,0 UV-I 0 W/m 17,8 km/h (3 Bft) 0,00 %
23.12.2012 16:00 15,2 C 12,4 C -4,0 C 9,1 C 0,0 C 95 % 0 % 0 lf 1005,2 hPa 0,7 l/m 0,00 h 0,00 h 0,000 mm 0,0 UV-I 0 W/m 16,3 km/h (3 Bft) 0,00 %
23.12.2012 17:00 15,1 C 10,6 C -22,5 C 7,4 C 0,0 C 95 % 0 % 0 lf 1006,1 hPa 0,2 l/m 0,00 h 0,00 h 0,000 mm 0,0 UV-I 0 W/m 11,7 km/h (2 Bft) 0,00 %
23.12.2012 18:00 14,9 C 10,2 C -22,5 C 6,8 C 0,0 C 95 % 0 % 0 lf 1006,4 hPa 0,4 l/m 0,00 h 0,00 h 0,000 mm 0,0 UV-I 0 W/m 9,8 km/h (2 Bft) 0,00 %
23.12.2012 19:00 14,8 C 10,2 C -22,5 C 6,4 C 0,0 C 96 % 0 % 0 lf 1006,8 hPa 0,2 l/m 0,00 h 0,00 h 0,000 mm 0,0 UV-I 0 W/m 11,0 km/h (2 Bft) 0,00 %
23.12.2012 20:00 14,8 C 9,9 C -22,5 C 6,2 C 0,0 C 96 % 0 % 0 lf 1007,3 hPa 0,1 l/m 0,00 h 0,00 h 0,000 mm 0,0 UV-I 0 W/m 10,6 km/h (2 Bft) 0,00 %
23.12.2012 21:00 14,8 C 9,7 C -22,5 C 5,9 C 0,0 C 96 % 0 % 0 lf 1007,6 hPa 0,4 l/m 0,00 h 0,00 h 0,000 mm 0,0 UV-I 0 W/m 8,6 km/h (2 Bft) 0,00 %
23.12.2012 22:00 14,7 C 9,3 C -22,5 C 5,6 C 0,0 C 96 % 0 % 0 lf 1008,2 hPa 0,6 l/m 0,00 h 0,00 h 0,000 mm 0,0 UV-I 0 W/m 9,1 km/h (2 Bft) 0,00 %
23.12.2012 23:00 14,7 C 8,9 C -22,6 C 5,4 C 0,0 C 96 % 0 % 0 lf 1008,6 hPa 0,9 l/m 0,00 h 0,00 h 0,000 mm 0,0 UV-I 0 W/m 5,5 km/h (1 Bft) 0,00 %
Min-Datum _ 20.12.12 20.12.12 20.12.12 20.12.12 17.12.12 20.12.12 17.12.12 17.12.12 23.12.12 - - - - - - 17.12.12 17.12.12
_ Min-Zeit 21:04 21:22 02:44 02:54 00:00 12:32 00:00 00:00 01:38 - - - - - - 00:02 00:00
Minimum _ 12,2 C 2,0 C -23,2 C -1,7 C 0,0 C 84 % 0 % 0 lf 1001,6 hPa - - - - - - 0,0 km/h (0 Bft) 0,00 %
Max-Datum _ 23.12.12 23.12.12 23.12.12 23.12.12 20.12.12 23.12.12 17.12.12 17.12.12 19.12.12 23.12.12 17.12.12 17.12.12 17.12.12 20.12.12 17.12.12 23.12.12 17.12.12
_ Max-Zeit 14:10 12:36 15:38 03:44 11:20 01:50 00:00 00:00 12:18 00:38 00:00 00:00 00:00 11:20 00:00 12:00 00:00
Maximum _ 15,3 C 13,6 C 29,0 C 9,5 C 0,1 C 100 % 0 % 0 lf 1022,3 hPa 3,3 l/m 0,00 h 0,00 h 0,000 mm 0,1 UV-I 0 W/m 74,8 km/h
W (8 Bft)
0,00 %
Durchschnitt _ 13,2 C 6,5 C -16,3 C 3,8 C 0,0 C 96 % 0 % 0 lf 1010,6 hPa #48,4 l/m #0 min. #0 min. #0,000 mm 0,1 UV-I 0 W/m 8,0 km/h (2 Bft) 0,00 %
© 2012 W. Hausmann